weather.gov     
National Weather Service

Regional Weather Roundup
NWS Homepage
This page is being discontinued on March 12, 2014.
The same data is available at this site. Please update your bookmarks.
Thank you, and we apologize for the inconvenience.
Please send an email to SR-SRH.Webmaster@noaa.gov with any concerns.


Current Version
Previous Version:    01  02  03  04  05  06  07  08  09  10  11  12  13  14  15  16  17  18  19  20  21  22  23  24  25  26  
[Printable]
595
ASUS44 KBMX 200610
RWRAL

ALABAMA REGIONAL WEATHER ROUNDUP
NATIONAL WEATHER SERVICE BIRMINGHAM AL
100 AM CDT WED AUG 20 2014

NOTE: "FAIR" INDICATES FEW OR NO CLOUDS BELOW 12,000 FEET
WITH NO SIGNIFICANT WEATHER AND/OR OBSTRUCTIONS TO VISIBILITY.

THE REMARK "TC" DENOTES TEMPERATURE IN DEGREES CELSIUS.

ALZ001>011-014-016>018-020-200700-
NORTH ALABAMA

CITY           SKY/WX    TMP DP  RH WIND       PRES   REMARKS
MUSCLE SHOALS  FAIR      74  70  87 CALM      29.94S
6HR MIN TEMP:  74; 6HR MAX TEMP:  85;

HUNTSVILLE     FAIR      75  72  90 CALM      29.94S
6HR MIN TEMP:  75; 6HR MAX TEMP:  87;

DECATUR        FAIR      77  74  90 S5        29.94S
6HR MIN TEMP:  74; 6HR MAX TEMP:  87;

HALEYVILLE     FAIR      74  73  96 CALM      29.99S
6HR MIN TEMP:  74; 6HR MAX TEMP:  84;

GADSDEN        FAIR      70  66  88 CALM      29.96S
6HR MIN TEMP:  70; 6HR MAX TEMP:  82;

$$

ALZ012-013-022-023-030>036-040>044-200700-
WEST CENTRAL ALABAMA

CITY           SKY/WX    TMP DP  RH WIND       PRES   REMARKS
TUSCALOOSA     FAIR      74  71  91 CALM      29.96F
6HR MIN TEMP:  73; 6HR MAX TEMP:  79;

$$

ALZ015-024>027-033>036-040>044-200700-
CENTRAL ALABAMA

CITY           SKY/WX    TMP DP  RH WIND       PRES   REMARKS
BIRMINGHAM     FAIR      77  68  73 VRB6      29.99S
6HR MIN TEMP:  77; 6HR MAX TEMP:  86;

MONTGOMERY     FAIR      73  70  90 CALM      29.97F
6HR MIN TEMP:  73; 6HR MAX TEMP:  75;

SHELBY CO ARPT FAIR      73  69  87 CALM      29.98S
6HR MIN TEMP:  73; 6HR MAX TEMP:  83;

MAXWELL AFB    FAIR      73  73 100 CALM      29.97F
6HR MIN TEMP:  72; 6HR MAX TEMP:  74;

GREENVILLE     FAIR      72  70  93 CALM      29.96F
6HR MIN TEMP:  72; 6HR MAX TEMP:  74;

$$

ALZ019-021-028-029-037-038-045>048-200700-
EAST CENTRAL ALABAMA

CITY           SKY/WX    TMP DP  RH WIND       PRES   REMARKS
ANNISTON       FAIR      74  71  91 W5        29.97F
6HR MIN TEMP:  74; 6HR MAX TEMP:  83;

ALEXANDER CITY FAIR      76  71  85 CALM      29.99F
6HR MIN TEMP:  76; 6HR MAX TEMP:  78;

AUBURN         FAIR      70  66  88 W6        30.01F
6HR MIN TEMP:  70; 6HR MAX TEMP:  72;

$$

ALZ051>064-200700-
SOUTHWEST ALABAMA

CITY           SKY/WX    TMP DP  RH WIND       PRES   REMARKS
MOBILE         FAIR      74  73  97 CALM      29.98F
6HR MIN TEMP:  74; 6HR MAX TEMP:  84; 6HR PCP:  0.01;

BROOKLEY FIELD FAIR      76  74  93 W5        29.98F
6HR MIN TEMP:  76; 6HR MAX TEMP:  85; 6HR PCP: TRACE;

EVERGREEN      FAIR      72  70  93 CALM      29.98F
6HR MIN TEMP:  72; 6HR MAX TEMP:  76; 6HR PCP:  0.04;

$$

ALZ049-050-065>069-200700-
SOUTHEAST ALABAMA

CITY           SKY/WX    TMP DP  RH WIND       PRES   REMARKS
DOTHAN         FAIR      74  72  93 SW5       30.01S
6HR MIN TEMP:  74; 6HR MAX TEMP:  76; 6HR PCP: TRACE;

OZARK          FAIR      73  71  92 SW5       29.98F
6HR MIN TEMP:  73; 6HR MAX TEMP:  76; 6HR PCP: TRACE;

TROY           FAIR      72  69  90 CALM      29.97F
6HR MIN TEMP:  72; 6HR MAX TEMP:  75; 6HR PCP:  0.01;

EUFAULA        FAIR      71  69  93 CALM      29.96F
6HR MIN TEMP:  71; 6HR MAX TEMP:  73;

$$




U.S. Dept. of Commerce
NOAA National Weather Service
1325 East West Highway
Silver Spring, MD 20910
E-mail: w-nws.webmaster@noaa.gov
Page last modified: May 16, 2007
NATIONAL WEATHER SERVICE: for Safety, for Work, for Fun - FOR LIFE